BLOCK DM R/B, 26769

Orbit data source: Space-Track

BLOCK DM R/B, 26769 is space debris in HEO originally from a launch on Tue, 15 May 2001 UTC launched from the Tyuratam Missile And Space Complex (TTMTR). Debris objects in space refer to the collection of defunct objects orbiting the Earth. Examples of debris include non-operational satellites, rocket bodies, and fragments generated from explosions, collisions, or faulty payload assembly.

Loading next visibility...
Identifier
26769, 2001-019D
Orbit
HEO
Last TLE update
15 hours ago
Origin
Manufacturer
RKKE
Mission
Spacecraft
Bus & Motor
BLOK DM2, Unknown motor
Mass
2,560 kg wet, 2,560 kg dry
Launch date (UTC)
2001-05-15 (24 years ago)
Launch vehicle
Unknown
Launch site
Tyuratam Missile And Space Complex (TTMTR)
Object type
Payload
Rocket body
Debris
Shape & HBR
Cyl + 1 Nozzle, 6.3 m
Radar Cross Section
23.684 m², Large (>1 m²)

Expand to show TLE details & history

TLE from 15 hours ago
0 BLOCK DM R/B
1 26769U 01019D   25192.37143638 -.00000150  00000-0  00000-0 0  9992
2 26769  18.2920  37.8654 5164428 297.3304   1.3925  1.86699383164773
Epoch: 2025-07-11T08:54Z
TLE epoch observation values (Epoch: 2025-07-11T08:54:52.103Z)
Latitude
-15.30175°
Longitude
-80.9311°
Altitude
7,121.211 km
Speed
6.69 km/s
True Right ascension
22h 49m 14s
True Declination
-15° 15' 20"
Sunlit
Object was in daylight at epoch
Visualization orbit readout
Latitude
13.9432°
Longitude
23.17373°
Altitude
19,155.856 km
Speed
4.113 km/s
Apparent Right ascension
05h 01m 14s
Apparent Declination
4° 39' 36"
Sunlit
Object is in daylight
Visualization observer readout
Local Sidereal Time
11:53:05
Azimuth
281.963° WNW
Elevation
-6.856°
Doppler factor
1
Orbital elements
Apogee altitude
35,872.475 km
Perigee altitude
7,094.569 km
Semi-major axis
27,861.659 km
Eccentricity
0.51644
Inclination
18.292°
RAAN
37.8654°
Arg. of periapsis
297.3304°
True anomaly
Unknown
Mean anomaly
1.3925°
Eccentric anomaly
Unknown
Mean motion
0.46669 °/min
Orbital period
771.38 mins
BSTAR
0
Loading maneuver chart data...
Loading SW <> Apogee altitude chart data...
Loading historical data...
Loading historical data...
Loading historical data...
Loading historical data...
Loading historical data...
Loading historical data...
Loading historical data...
Other satellites on launch #19 in the year 2001 (2001-05-15 UTC)

BLOCK DM R/B Visibility forecast

Observer location: undefined°, undefined°

Span
Click to sort rows by Start time (UTC) header in descending order
Start Az.
Max El. time (UTC)
Max El. Az.
Max El.
End time (UTC)
End Az.
45 mins2025-07-12 10:47:03.913Z166.085° S2025-07-12 11:04:03.913Z139.13° SSE12.078°2025-07-12 11:32:03.913Z110.577° ESE
274 mins2025-07-12 16:03:03.913Z82.723° E2025-07-12 18:55:03.913Z94.681° ESE14.953°2025-07-12 20:37:03.913Z101.494° ESE
|